Regional Weather Roundup
Issued by NWS

Home | Current Version | Previous Version | Graphics & Text | Print | Product List | Glossary On
Versions: 1 2 3 4 5 6 7 8 9 10 11 12 13 14 15 16 17 18 19 20 21 22 23 24 25 26 27 28 29 30 31 32 33 34 35 36 37 38 39 40 41 42 43 44 45 46 47 48 49 50
000
ASUS45 KCYS 011810
RWRWY

WYOMING REGIONAL WEATHER ROUNDUP
NATIONAL WEATHER SERVICE CHEYENNE WY
1200 PM MDT SAT AUG 01 2015

NOTE:  "FAIR" INDICATES FEW OR NO CLOUDS BELOW 12,000 FEET
WITH NO SIGNIFICANT WEATHER AND/OR OBSTRUCTIONS TO VISIBILITY.

WYZ001-011900-
YELLOWSTONE NATIONAL PARK

CITY           SKY/WX    TMP DP  RH WIND       PRES   REMARKS
LK YELLOWSTONE   N/A     65  44  46 CALM      30.43F
6HR MIN TEMP:  35; 6HR MAX TEMP:  66;

W YELLOWSTONE  NOT AVBL

$$
WYZ002>013-054>058-071-098>099-011900-
NORTHERN WYOMING

CITY           SKY/WX    TMP DP  RH WIND       PRES   REMARKS
JACKSON        SUNNY     73  37  27 CALM      30.32F
CODY           FAIR      86  30  13 W3        30.17S
GREYBULL       FAIR      88  35  15 VRB3      30.08F
6HR MIN TEMP:  58; 6HR MAX TEMP:  89;

WORLAND        FAIR      86  37  17 NE7       30.11F
6HR MIN TEMP:  52; 6HR MAX TEMP:  87;

SHERIDAN       FAIR      93  26   9 N8G17     30.06F
6HR MIN TEMP:  52; 6HR MAX TEMP:  94;

BUFFALO        FAIR      89  27  10 N9        30.15F
6HR MIN TEMP:  63; 6HR MAX TEMP:  89;

GILLETTE       FAIR      89  30  12 VRB6G17   30.10F
6HR MIN TEMP:  62; 6HR MAX TEMP:  90;

HULETT         FAIR      86  39  19 CALM      30.10F
NEWCASTLE      FAIR      88  36  15 NW12      30.08F

$$
WYZ014>020-022>026-101>103-011900-
CENTRAL WYOMING

CITY           SKY/WX    TMP DP  RH WIND       PRES   REMARKS
BIG PINEY      FAIR      81  28  14 VRB6      30.32F
6HR MIN TEMP:  45; 6HR MAX TEMP:  83;

PINEDALE       FAIR      79  28  15 CALM      30.34S
DUBOIS         FAIR      79  19  11 NW8       30.33F
LANDER         FAIR      86  34  15 E9        30.19F
6HR MIN TEMP:  60; 6HR MAX TEMP:  88;

RIVERTON       FAIR      84  35  17 E7        30.20F
6HR MIN TEMP:  60; 6HR MAX TEMP:  85;

CASPER         FAIR      87  36  16 N5        30.17F
6HR MIN TEMP:  51; 6HR MAX TEMP:  87;

DOUGLAS        FAIR      89  39  17 N8G16     30.14F
6HR MIN TEMP:  54; 6HR MAX TEMP:  90;


$$
WYZ021-027>030-104>119-011900-
SOUTHERN WYOMING

CITY           SKY/WX    TMP DP  RH WIND       PRES   REMARKS
EVANSTON       FAIR      80  30  16 N5        30.34F
6HR MIN TEMP:  54; 6HR MAX TEMP:  80;

KEMMERER       FAIR     N/A N/A N/A N3        30.35S
FORT BRIDGER   CLEAR     81  28  15 CALM      30.36F
ROCK SPRINGS   FAIR      78  32  18 CALM      30.30F
6HR MIN TEMP:  53; 6HR MAX TEMP:  78;

DIXON          FAIR      83  31  15 W10       30.29F
RAWLINS        FAIR      83  26  12 VRB6      30.29F
6HR MIN TEMP:  47; 6HR MAX TEMP:  83;

SARATOGA       FAIR      81  36  19 N7        30.31S
LARAMIE        FAIR      81  36  19 VRB7      30.30S
6HR MIN TEMP:  49; 6HR MAX TEMP:  81;

CHEYENNE       FAIR      86  46  24 S12G18    30.20F
6HR MIN TEMP:  53; 6HR MAX TEMP:  86;

TORRINGTON     FAIR      87  56  34 SW5       30.06F
6HR MIN TEMP:  58; 6HR MAX TEMP:  87;

PINE BLUFFS    FAIR      86  46  25 SW8G18    30.15F

$$



USA.gov is the U.S. government's official web portal to all federal, state and local government web resources and services.